GW7273 Weather Reports


time (UTC)temp
C
wind
direction
speed
KPH
gust
KPH
rain 1hr
cm
rain 24hr
cm
rain mn
cm
humidity
%
barometer
mb
20260503021543 12 160 4.8 9.7 0.00 0.00 0.00 53 1016.6
20260503020039 12 155 4.8 9.7 0.00 0.00 0.00 51 1016.7
20260503014550 13 193 4.8 9.7 0.00 0.00 0.00 51 1016.8
20260503013042 13 191 4.8 9.7 0.00 0.00 0.00 50 1017.0
20260503011538 13 196 6.4 11.3 0.00 0.00 0.00 49 1017.0
20260503010040 13 187 8.0 14.5 0.00 0.00 0.00 49 1017.0
20260503004610 13 152 4.8 8.0 0.00 0.00 0.00 48 1017.0
20260503003048 14 195 3.2 8.0 0.00 0.00 0.00 47 1017.2
20260503001549 14 158 4.8 8.0 0.00 0.00 0.00 46 1017.4
20260503000048 14 140 4.8 8.0 0.00 0.00 0.00 47 1017.4
20260502234551 14 168 4.8 6.4 0.00 0.00 0.00 47 1017.5
20260502233040 15 165 3.2 6.4 0.00 0.00 0.00 47 1017.6
20260502231544 14 164 4.8 6.4 0.00 0.00 0.00 48 1017.8
20260502230044 14 152 3.2 6.4 0.00 0.00 0.00 49 1017.8
20260502224541 14 141 3.2 6.4 0.00 0.00 0.00 49 1018.0
20260502223051 15 153 3.2 6.4 0.00 0.00 0.00 49 1018.0
20260502221537 15 174 3.2 4.8 0.00 0.00 0.00 48 1018.2
20260502220042 15 162 3.2 4.8 0.00 0.00 0.00 48 1018.2
20260502214606 15 156 3.2 4.8 0.00 0.00 0.00 48 1018.2
20260502213103 15 154 3.2 4.8 0.00 0.00 0.00 48 1018.3
20260502211541 15 156 3.2 6.4 0.00 0.00 0.00 47 1018.3
20260502210041 15 141 3.2 4.8 0.00 0.00 0.00 51 1018.4
20260502204541 15 167 1.6 3.2 0.00 0.00 0.00 49 1018.4
20260502203104 15 143 1.6 3.2 0.00 0.00 0.00 49 1018.4
20260502201544 15 137 0.0 3.2 0.00 0.00 0.00 52 1018.4
20260502200051 15 140 1.6 3.2 0.00 0.00 0.00 49 1018.5
20260502194542 16 147 1.6 3.2 0.00 0.00 0.00 49 1018.4
20260502193041 16 145 1.6 4.8 0.00 0.00 0.00 52 1018.5
20260502191545 16 140 1.6 3.2 0.00 0.00 0.00 50 1018.6
20260502190041 16 138 0.0 1.6 0.00 0.00 0.00 50 1018.6
20260502184542 18 139 1.6 3.2 0.00 0.00 0.00 43 1018.6
20260502183043 19 141 1.6 3.2 0.00 0.00 0.00 41 1018.6
20260502181543 20 193 1.6 1.6 0.00 0.00 0.00 38 1018.5
20260502163052 24 205 6.4 12.9 0.00 0.00 0.00 28 1019.2
20260502161554 24 213 6.4 12.9 0.00 0.00 0.00 28 1019.4
20260502151541 24 193 4.8 16.1 0.00 0.00 0.00 30 1020.3
20260502123106 24 115 6.4 14.5 0.00 0.00 0.00 28 1022.1
20260502121541 24 219 8.0 16.1 0.00 0.00 0.00 29 1022.3
20260502114538 23 205 8.0 17.7 0.00 0.00 0.00 28 1022.8
20260502113044 24 333 4.8 11.3 0.00 0.00 0.00 29 1022.8
20260502111543 24 191 8.0 14.5 0.00 0.00 0.00 28 1023.0
20260502110042 24 244 3.2 14.5 0.00 0.00 0.00 29 1023.2
20260502104541 23 297 4.8 14.5 0.00 0.00 0.00 30 1023.2
20260502103042 24 248 6.4 12.9 0.00 0.00 0.00 31 1023.4
20260502101540 23 241 1.6 17.7 0.00 0.00 0.00 31 1023.6
20260502071536 18 262 1.6 6.4 0.00 0.00 0.00 48 1024.5
20260502070100 18 257 1.6 4.8 0.00 0.00 0.00 49 1024.6
20260502064549 17 254 1.6 6.4 0.00 0.00 0.00 51 1024.5
20260502063041 16 258 3.2 6.4 0.00 0.00 0.00 51 1024.5
20260502061541 16 232 0.0 4.8 0.00 0.00 0.00 52 1024.6
20260502060045 15 229 3.2 6.4 0.00 0.00 0.00 54 1024.5
20260502054537 14 225 1.6 6.4 0.00 0.00 0.00 54 1024.4
20260502053045 13 259 1.6 4.8 0.00 0.00 0.00 56 1024.6
20260502051556 12 200 0.0 1.6 0.00 0.00 0.00 68 1024.5
20260502050046 9 0 0.0 1.6 0.00 0.00 0.00 81 1024.6
20260502044544 8 136 0.0 1.6 0.00 0.00 0.00 79 1024.6
20260502043045 7 136 0.0 1.6 0.00 0.00 0.00 79 1024.4
20260502041544 6 0 0.0 0.0 0.00 0.00 0.00 85 1024.5
20260502040042 5 0 0.0 1.6 0.00 0.00 0.00 89 1024.5
20260502034539 4 136 0.0 1.6 0.00 0.00 0.00 91 1024.5
20260502033041 4 0 0.0 1.6 0.00 0.00 0.00 89 1024.7
20260502031541 4 136 0.0 1.6 0.00 0.00 0.00 89 1024.7
20260502030045 4 0 0.0 1.6 0.00 0.00 0.00 90 1024.9
20260502024541 4 136 0.0 1.6 0.00 0.00 0.00 88 1024.8
20260502023042 5 0 0.0 1.6 0.00 0.00 0.00 88 1024.8